884  
ASUS46 KSEW 131220  
RWRWA  
 
WASHINGTON REGIONAL WEATHER ROUNDUP  
NATIONAL WEATHER SERVICE SEATTLE WA  
500 AM PDT TUE APR 13 2021  
 
NOTE:"FAIR" INDICATES FEW OR NO CLOUDS BELOW 12,000 FEET WITH NO  
SIGNIFICANT WEATHER AND/OR S TO VISIBILITY
.  
 
WAZ507-509-555>559-131300-  
SEATTLE, TACOMA, EVERETT, AND VICINITY  
 
CITY SKY/WX TMP DP RH WIND PRES REMARKS
 
EVERETT CLEAR 40 25 55 CALM 30.32S  
6HR MIN TEMP: 39; 6HR MAX TEMP: 50;  
 
BOEING FIELD CLEAR 44 25 47 CALM 30.32R  
6HR MIN TEMP: 44; 6HR MAX TEMP: 50;  
 
RENTON CLEAR 38 27 64 CALM 30.31S  
6HR MIN TEMP: 38; 6HR MAX TEMP: 49;  
 
SEATAC AIRPORT CLEAR 41 26 55 N12 30.30S  
6HR MIN TEMP: 40; 6HR MAX TEMP: 50;  
 
JBLM-MCCHORD CLEAR 42 22 43 NE8 30.29R  
6HR MIN TEMP: 42; 6HR MAX TEMP: 49;  
 
PUYALLUP FAIR 50 18 27 VRB5 30.27S  
BREMERTON CLEAR 40 24 53 NE5 30.31R  
6HR MIN TEMP: 40; 6HR MAX TEMP: 48;  
 
JBLM-FT LEWIS CLEAR 49 20 32 N9 30.27R  
6HR MIN TEMP: 49; 6HR MAX TEMP: 51;  
 
TACOMA NARROWS CLEAR 45 30 55 N10 30.30R  
6HR MIN TEMP: 42; 6HR MAX TEMP: 49;  
 

 
 
WAZ001-503-506-510-514-515-131300-  
NORTH INTERIOR  
 
CITY SKY/WX TMP DP RH WIND PRES REMARKS
 
BELLINGHAM CLEAR 42 25 50 NE8 30.36S  
6HR MIN TEMP: 41; 6HR MAX TEMP: 47;  
 
FRIDAY HARBOR CLEAR 48 27 44 N7 30.36S  
6HR MIN TEMP: 42; 6HR MAX TEMP: 50;  
 
EASTSOUND CLEAR 45 30 57 CALM 30.37S  
PORT ANGELES CLEAR 36 28 73 SW9 30.37S  
6HR MIN TEMP: 34; 6HR MAX TEMP: 40;  
 
EDIZ HOOK FAIR 42 35 74 SW6 30.37S  
6HR MIN TEMP: 41; 6HR MAX TEMP: 45;  
 
PORT TOWNSEND FAIR 30 28 93 CALM 30.34F  
NAS WHIDBEY CLEAR 44 24 45 SE3 30.38S  
6HR MIN TEMP: 43; 6HR MAX TEMP: 52;  
 
ARLINGTON CLEAR 37 28 70 N10 30.35R  
6HR MIN TEMP: 36; 6HR MAX TEMP: 46;  
 
BURLINGTON CLEAR 39 27 60 NE7 30.36S  

 
 
WAZ020-022-039-040-504-511-512-131300-  
SOUTHWEST INTERIOR  
 
CITY SKY/WX TMP DP RH WIND PRES REMARKS
 
SHELTON CLEAR 40 28 62 CALM 30.28R  
6HR MIN TEMP: 40; 6HR MAX TEMP: 52;  
 
OLYMPIA CLEAR 36 27 69 CALM 30.28R  
6HR MIN TEMP: 32; 6HR MAX TEMP: 50;  
 
CHEHALIS FAIR 36 30 80 NE5 30.27R  
KELSO CLEAR 36 32 85 CALM 30.24R  
6HR MIN TEMP: 35; 6HR MAX TEMP: 47;  
 
VANCOUVER CLEAR 36 24 62 CALM 30.19S  
6HR MIN TEMP: 36; 6HR MAX TEMP: 58;  
 
SCAPPOOSE, OR CLEAR 42 26 53 W5 30.20S  
6HR MIN TEMP: 39; 6HR MAX TEMP: 52;  
 
PORTLAND, OR CLEAR 40 30 67 W3 30.20R  
6HR MIN TEMP: 38; 6HR MAX TEMP: 59;  
 

 
 
WAZ021-516-517-131300-  
WASHINGTON COAST  
 
CITY SKY/WX TMP DP RH WIND PRES REMARKS
 
FORKS CLEAR 45 24 43 N8 30.33R  
6HR MIN TEMP: 43; 6HR MAX TEMP: 49;  
 
HOQUIAM CLEAR 42 27 55 E5 30.28R  
6HR MIN TEMP: 37; 6HR MAX TEMP: 49;  
 
ASTORIA, OR CLEAR 49 28 44 NE16 30.22S  
6HR MIN TEMP: 48; 6HR MAX TEMP: 52;  
 

 
 
WAZ019-023-024-040-567>569-131300-  
CASCADE MOUNTAINS AND COLUMBIA GORGE  
 
CITY SKY/WX TMP DP RH WIND PRES REMARKS
 
STAMPEDE PASS CLEAR 30 19 63 VRB5 30.23S  
6HR MIN TEMP: 30; 6HR MAX TEMP: 33;  
 
TROUTDALE, OR CLEAR 52 21 29 NE7 30.19R  
6HR MIN TEMP: 52; 6HR MAX TEMP: 58;  
 
HOOD RIVER, OR SUNNY 39 23 52 MISG 30.25R  
THE DALLES, OR CLEAR 48 18 30 E16 30.24R  
6HR MIN TEMP: 48; 6HR MAX TEMP: 55;  
 

 
 
WAZ026-027-041>044-520-521-131300-  
EAST SLOPES  
 
CITY SKY/WX TMP DP RH WIND PRES REMARKS
 
OMAK CLEAR 40 20 44 N16 30.39S  
6HR MIN TEMP: 38; 6HR MAX TEMP: 45;  
 
WENATCHEE CLEAR 46 15 28 NE23G37 30.33S  
6HR MIN TEMP: 45; 6HR MAX TEMP: 48;  
 
ELLENSBURG CLEAR 42 15 33 N12 30.29S  
6HR MIN TEMP: 39; 6HR MAX TEMP: 48;  
 
YAKIMA CLEAR 46 14 27 NE13G23 30.30R  
6HR MIN TEMP: 45; 6HR MAX TEMP: 50;  
 
SUNNYSIDE ARPT MOSUNNY 45 17 32 N23G41 30.24F  
6HR MIN TEMP: 43; 6HR MAX TEMP: 48;  
 
YAKIMA TC FAIR 43 12 28 N15G24 30.26S  
6HR MIN TEMP: 43; 6HR MAX TEMP: 47;  
 

 
 
WAZ028-034-035-131300-  
COLUMBIA BASIN  
 
CITY SKY/WX TMP DP RH WIND PRES REMARKS
 
EPHRATA CLEAR 40 18 41 N14 30.31R  
6HR MIN TEMP: 40; 6HR MAX TEMP: 46;  
 
MOSES LAKE CLEAR 41 17 38 N17 30.30R  
6HR MIN TEMP: 41; 6HR MAX TEMP: 43;  
 
PASCO CLEAR 42 19 39 N15 30.22R  
6HR MIN TEMP: 42; 6HR MAX TEMP: 49;  
 
RICHLAND ARPT SUNNY 40 20 45 W5 30.26R  
6HR MIN TEMP: 45; 6HR MAX TEMP: 52;  
 
HERMISTON, OR CLEAR 42 18 37 N13 30.19S  
6HR MIN TEMP: 39; 6HR MAX TEMP: 51;  
 

 
 
WAZ036>038-131300-  
NORTHEAST WASHINGTON  
 
CITY SKY/WX TMP DP RH WIND PRES REMARKS
 
SPOKANE GEIGER CLEAR 37 13 37 NE18 30.29S  
6HR MIN TEMP: 36; 6HR MAX TEMP: 41;  
 
SPOKANE FELTS CLEAR 40 17 39 NE7 30.32S  
6HR MIN TEMP: 40; 6HR MAX TEMP: 45;  
 
FAIRCHILD AFB CLEAR 35 13 40 NE16 30.28S WCI 25  
6HR MIN TEMP: 34; 6HR MAX TEMP: 38;  
 
COEURDALENE,ID CLEAR 33 16 49 N13 30.32F WCI 24  
6HR MIN TEMP: 33; 6HR MAX TEMP: 40;  
 
DEER PARK CLEAR 36 13 38 NE12 30.33S  
6HR MIN TEMP: 36; 6HR MAX TEMP: 42;  
 

 
 
WAZ029>033-131300-  
SOUTHEAST WASHINGTON  
 
CITY SKY/WX TMP DP RH WIND PRES REMARKS
 
PULLMAN CLEAR 32 12 43 NE6 30.22S  
6HR MIN TEMP: 31; 6HR MAX TEMP: 41;  
 
LEWISTON, ID CLEAR 43 12 28 NE12G20 30.20S  
6HR MIN TEMP: 43; 6HR MAX TEMP: 49;  
 
WALLA WALLA CLEAR 27 19 72 E6 30.14R  
6HR MIN TEMP: 27; 6HR MAX TEMP: 44;  
 
PENDLETON, OR CLEAR 32 20 61 W3 30.14S  
6HR MIN TEMP: 26; 6HR MAX TEMP: 41;  
 

 
 
 
CLICK HERE TO GO TO PREVIOUS BULLETINS.

The Nexlab WA Page Main Text Page